Starlink 3154

operational
NORAD ID: 49417 Int'l Des: 2021-104 Owner: SPXS Country: US Constellation: starlink
LEOCIRCULAR

About Starlink 3154

Description loading...

Live Position

Loading 3D Globe...

Upcoming Passes

Altitude History

Altitude vs Time

uPlot chart will show altitude changes over time

Two-Line Element Set

1 49417U 21104K 26101.92117771 .00007959 00000-0 51803-3 0 9998
2 49417 53.2170 69.5901 0001199 64.2794 295.8322 15.08807968243784
Epoch: Apr 11, 2026 • Age: 9 hours

Current Status

Altitude 540.2 km
Velocity 7.59 km/s
Sub-Earth Point 9.60°N, 61.73°W
Launch Date Nov 13, 2021
Age 4.4 years
Type internet

Technical Details

Classification Payload
Mass 290.00 kg
Dry Mass 270.00 kg
Total Mass 290.00 kg
Length 0.20 m
Diameter 2.80 m
Span 9.00 m
Shape Box + pan
Manufacturer SPXS
Bus Type Starlink
Phase Status In Orbit
Owner/State SPXS/US

Large Constellations

Loading constellations...